User: anonymous
Location: Brno
(49.2000°N, 16.6330°E)
Time: 02:46:12
(UTC+02:00)
Language:

Cosmos 332 Rocket - Orbit

View from above orbital plane
View from above orbital plane
View from above satellite
View from above satellite

Ground track
Ground track

The orbit data is extracted from the following two-line orbital elements,

1 04370U 70028B   14114.46878601  .00000761  00000-0  16797-3 0  6198
2 04370 074.0385 121.0598 0016730 327.7233 192.3758 14.59050028844244
Epoch (UTC): 24 April 2014 11:15:03
Eccentricity: 0.0016730
inclination: 74.0385°
perigee height: 684 km
apogee height: 708 km
right ascension of ascending node: 121.0598°
argument of perigee: 327.7233°
revolutions per day: 14.59050028
mean anomaly at epoch: 192.3758°
orbit number at epoch: 84424

The dashed part of the orbit path shows where the satellite is in the earth's shadow,  

DLR